Time,TemperatureF,DewpointF,PressureIn,WindDirection,WindDirectionDegrees,WindSpeedMPH,WindSpeedGustMPH,Humidity,HourlyPrecipIn,Conditions,Clouds,dailyrainin,SoftwareType,DateUTC
2013-01-31 00:00:00,50.0,49.2,29.44,SSW,192,8.3,13.4,97,0.00,,---,0.00,VWS V14.01,2013-01-31 05:00:00,
2013-01-31 00:01:00,50.0,49.2,29.44,SSW,196,13.4,14.3,97,0.00,,---,0.00,VWS V14.01,2013-01-31 05:01:00,
2013-01-31 00:06:00,49.8,49.0,29.44,SSW,203,13.0,15.9,97,0.00,,---,0.00,VWS V14.01,2013-01-31 05:06:00,
2013-01-31 00:11:00,49.8,49.0,29.44,South,173,11.2,18.6,97,0.00,,---,0.00,VWS V14.01,2013-01-31 05:11:00,
2013-01-31 00:16:00,50.0,49.2,29.44,South,191,11.2,13.0,97,0.00,,---,0.00,VWS V14.01,2013-01-31 05:16:00,
2013-01-31 00:21:00,50.0,49.2,29.44,South,191,10.5,13.0,97,0.00,,---,0.00,VWS V14.01,2013-01-31 05:21:00,
2013-01-31 00:26:00,50.0,49.2,29.41,SSE,161,17.7,17.7,97,0.00,,---,0.00,VWS V14.01,2013-01-31 05:26:00,
2013-01-31 00:31:00,49.8,49.0,29.41,SSE,167,13.4,18.6,97,0.00,,---,0.00,VWS V14.01,2013-01-31 05:31:00,
2013-01-31 00:36:00,49.8,49.0,29.41,SW,216,15.4,15.4,97,0.00,,---,0.00,VWS V14.01,2013-01-31 05:36:00,
2013-01-31 00:41:00,49.6,48.8,29.41,SSW,204,14.8,15.2,97,0.00,,---,0.00,VWS V14.01,2013-01-31 05:41:00,
2013-01-31 00:46:00,49.5,48.7,29.41,SSW,195,13.4,17.2,97,0.00,,---,0.00,VWS V14.01,2013-01-31 05:46:00,
2013-01-31 00:51:00,49.5,48.7,29.41,South,184,15.4,17.7,97,0.00,,---,0.00,VWS V14.01,2013-01-31 05:51:00,
2013-01-31 00:56:00,49.6,48.8,29.41,South,182,13.4,15.4,97,0.00,,---,0.00,VWS V14.01,2013-01-31 05:56:00,
2013-01-31 01:01:00,49.8,49.0,29.41,SSE,165,21.9,21.9,97,0.00,,---,0.00,VWS V14.01,2013-01-31 06:01:00,
2013-01-31 01:06:00,50.0,49.2,29.41,South,191,15.2,15.2,97,0.00,,---,0.00,VWS V14.01,2013-01-31 06:06:00,
2013-01-31 01:11:00,50.2,49.4,29.38,SE,146,8.3,14.8,97,0.00,,---,0.00,VWS V14.01,2013-01-31 06:11:00,
2013-01-31 01:16:00,50.0,49.2,29.38,SSE,162,12.1,14.8,97,0.00,,---,0.00,VWS V14.01,2013-01-31 06:16:00,
2013-01-31 01:21:00,50.0,49.2,29.38,SE,138,12.5,13.9,97,0.00,,---,0.00,VWS V14.01,2013-01-31 06:21:00,
2013-01-31 01:26:00,50.4,49.5,29.38,SSE,164,15.2,19.9,97,0.00,,---,0.00,VWS V14.01,2013-01-31 06:26:00,
2013-01-31 01:31:00,50.4,49.5,29.38,SSW,206,16.3,18.1,97,0.00,,---,0.00,VWS V14.01,2013-01-31 06:31:00,
2013-01-31 01:36:00,50.2,49.4,29.38,SSW,205,14.3,14.3,97,0.00,,---,0.00,VWS V14.01,2013-01-31 06:36:00,
2013-01-31 01:41:00,50.2,49.4,29.35,SSE,168,22.8,22.8,97,0.00,,---,0.00,VWS V14.01,2013-01-31 06:41:00,
2013-01-31 01:46:00,50.0,49.2,29.35,South,176,14.8,14.8,97,0.00,,---,0.00,VWS V14.01,2013-01-31 06:46:00,
2013-01-31 01:51:00,50.2,49.4,29.35,SSE,156,18.6,18.6,97,0.00,,---,0.00,VWS V14.01,2013-01-31 06:51:00,
2013-01-31 01:56:00,50.2,49.4,29.35,South,180,16.8,16.8,97,0.00,,---,0.00,VWS V14.01,2013-01-31 06:56:00,
2013-01-31 02:01:00,50.5,49.7,29.35,South,186,17.2,19.5,97,0.00,,---,0.00,VWS V14.01,2013-01-31 07:01:00,
2013-01-31 02:06:00,50.5,49.7,29.35,South,191,18.1,20.1,97,0.00,,---,0.00,VWS V14.01,2013-01-31 07:06:00,
2013-01-31 02:11:00,50.5,49.7,29.32,SSW,208,15.4,22.4,97,0.00,,---,0.00,VWS V14.01,2013-01-31 07:11:00,
2013-01-31 02:16:00,50.7,49.9,29.32,SE,135,15.4,19.5,97,0.00,,---,0.00,VWS V14.01,2013-01-31 07:16:00,
2013-01-31 02:21:00,50.7,49.9,29.32,SSE,161,19.9,19.9,97,0.00,,---,0.00,VWS V14.01,2013-01-31 07:21:00,
2013-01-31 02:26:00,50.9,50.1,29.32,South,189,15.4,17.2,97,0.00,,---,0.00,VWS V14.01,2013-01-31 07:26:00,
2013-01-31 02:31:00,50.9,50.1,29.32,SSW,200,19.9,28.0,97,0.00,,---,0.00,VWS V14.01,2013-01-31 07:31:00,
2013-01-31 02:36:00,50.9,50.1,29.32,SSE,149,17.2,19.5,97,0.00,,---,0.00,VWS V14.01,2013-01-31 07:36:00,
2013-01-31 02:41:00,50.7,49.9,29.32,South,176,21.0,21.0,97,0.00,,---,0.00,VWS V14.01,2013-01-31 07:41:00,
2013-01-31 02:46:00,50.5,49.7,29.32,SSE,166,15.2,15.9,97,0.00,,---,0.00,VWS V14.01,2013-01-31 07:46:00,
2013-01-31 02:51:00,50.4,49.5,29.32,SSE,158,22.4,22.4,97,0.00,,---,0.00,VWS V14.01,2013-01-31 07:51:00,
2013-01-31 02:56:00,50.4,49.5,29.29,South,174,14.8,14.8,97,0.00,,---,0.00,VWS V14.01,2013-01-31 07:56:00,
2013-01-31 03:01:00,50.5,49.7,29.29,South,191,20.6,21.9,97,0.00,,---,0.00,VWS V14.01,2013-01-31 08:01:00,
2013-01-31 03:06:00,50.4,49.5,29.29,South,179,14.3,19.9,97,0.00,,---,0.00,VWS V14.01,2013-01-31 08:06:00,
2013-01-31 03:11:00,50.4,49.5,29.26,South,169,16.3,24.4,97,0.00,,---,0.00,VWS V14.01,2013-01-31 08:11:00,
2013-01-31 03:16:00,50.2,49.4,29.26,South,172,15.4,24.4,97,0.00,,---,0.00,VWS V14.01,2013-01-31 08:16:00,
2013-01-31 03:21:00,50.2,49.4,29.26,SSE,150,20.1,30.0,97,0.00,,---,0.00,VWS V14.01,2013-01-31 08:21:00,
2013-01-31 03:25:00,50.2,49.4,29.23,SE,134,22.8,23.3,97,0.00,,---,0.00,VWS V14.01,2013-01-31 08:25:00,
2013-01-31 03:30:00,50.2,49.4,29.23,ESE,105,11.0,24.2,97,0.00,,---,0.00,VWS V14.01,2013-01-31 08:30:00,
2013-01-31 03:36:00,50.2,49.4,29.23,SE,126,17.2,17.2,97,0.00,,---,0.00,VWS V14.01,2013-01-31 08:36:00,
2013-01-31 03:40:00,49.8,49.0,29.23,SSE,149,15.2,18.6,97,0.00,,---,0.00,VWS V14.01,2013-01-31 08:40:00,
2013-01-31 03:45:00,49.8,49.0,29.23,South,172,18.1,18.1,97,0.00,,---,0.00,VWS V14.01,2013-01-31 08:45:00,
2013-01-31 03:50:00,49.6,48.8,29.23,SE,132,19.0,21.0,97,0.00,,---,0.00,VWS V14.01,2013-01-31 08:50:00,
2013-01-31 03:55:00,49.8,49.0,29.21,South,169,20.1,20.1,97,0.00,,---,0.00,VWS V14.01,2013-01-31 08:55:00,
2013-01-31 04:00:00,49.6,48.8,29.21,ESE,105,13.0,15.9,97,0.00,,---,0.00,VWS V14.01,2013-01-31 09:00:00,
2013-01-31 04:05:00,49.6,48.8,29.21,SE,136,14.8,20.1,97,0.00,,---,0.00,VWS V14.01,2013-01-31 09:05:00,
2013-01-31 04:10:00,49.8,49.0,29.21,South,191,14.3,24.2,97,0.00,,---,0.00,VWS V14.01,2013-01-31 09:10:00,
2013-01-31 04:15:00,49.8,49.0,29.21,South,182,18.6,24.8,97,0.00,,---,0.00,VWS V14.01,2013-01-31 09:15:00,
2013-01-31 04:20:00,49.8,49.0,29.21,SSE,168,11.0,23.7,97,0.00,,---,0.00,VWS V14.01,2013-01-31 09:20:00,
2013-01-31 04:25:00,49.6,48.8,29.21,SSE,152,18.6,18.6,97,0.00,,---,0.00,VWS V14.01,2013-01-31 09:25:00,
2013-01-31 04:30:00,49.6,48.8,29.21,South,170,15.2,22.4,97,0.00,,---,0.00,VWS V14.01,2013-01-31 09:30:00,
2013-01-31 04:35:00,49.8,49.0,29.21,South,171,7.4,16.8,97,0.00,,---,0.00,VWS V14.01,2013-01-31 09:35:00,
2013-01-31 04:40:00,50.0,49.2,29.18,SE,137,19.9,21.9,97,0.00,,---,0.00,VWS V14.01,2013-01-31 09:40:00,
2013-01-31 04:45:00,50.2,49.4,29.18,SE,140,15.9,20.6,97,0.00,,---,0.00,VWS V14.01,2013-01-31 09:45:00,
2013-01-31 04:50:00,50.2,49.4,29.18,South,172,21.9,21.9,97,0.00,,---,0.00,VWS V14.01,2013-01-31 09:50:00,
2013-01-31 04:55:00,50.2,49.4,29.15,SSE,154,13.4,19.5,97,0.00,,---,0.00,VWS V14.01,2013-01-31 09:55:00,
2013-01-31 05:00:00,50.2,49.4,29.15,South,184,11.0,21.9,97,0.00,,---,0.00,VWS V14.01,2013-01-31 10:00:00,
2013-01-31 05:05:00,50.2,49.4,29.15,South,180,16.8,21.5,97,0.00,,---,0.00,VWS V14.01,2013-01-31 10:05:00,
2013-01-31 05:10:00,50.2,49.4,29.15,SSE,152,15.4,22.8,97,0.00,,---,0.00,VWS V14.01,2013-01-31 10:10:00,
2013-01-31 05:15:00,50.2,49.4,29.15,SSE,165,13.0,19.9,97,0.00,,---,0.00,VWS V14.01,2013-01-31 10:15:00,
2013-01-31 05:20:00,50.4,49.5,29.15,South,172,8.3,17.7,97,0.00,,---,0.00,VWS V14.01,2013-01-31 10:20:00,
2013-01-31 05:25:00,50.5,49.7,29.15,SSE,148,17.7,22.8,97,0.00,,---,0.00,VWS V14.01,2013-01-31 10:25:00,
2013-01-31 05:30:00,50.4,49.5,29.15,SE,134,13.9,17.2,97,0.00,,---,0.00,VWS V14.01,2013-01-31 10:30:00,
2013-01-31 05:35:00,50.4,49.5,29.15,SSE,160,22.8,22.8,97,0.00,,---,0.00,VWS V14.01,2013-01-31 10:35:00,
2013-01-31 05:40:00,50.4,49.5,29.15,SSE,156,20.6,20.6,97,0.00,,---,0.00,VWS V14.01,2013-01-31 10:40:00,
2013-01-31 05:45:00,50.4,49.5,29.15,SE,138,24.4,24.4,97,0.00,,---,0.00,VWS V14.01,2013-01-31 10:45:00,
2013-01-31 05:50:00,50.9,50.1,29.15,SE,136,20.6,22.8,97,0.00,,---,0.00,VWS V14.01,2013-01-31 10:50:00,
2013-01-31 05:55:00,51.3,50.4,29.12,SSE,149,15.4,18.6,97,0.00,,---,0.00,VWS V14.01,2013-01-31 10:55:00,
2013-01-31 06:01:00,51.1,50.3,29.12,SSE,149,17.7,19.0,97,0.00,,---,0.00,VWS V14.01,2013-01-31 11:01:00,
2013-01-31 06:06:00,50.5,49.7,29.12,SE,143,10.5,14.3,97,0.00,,---,0.00,VWS V14.01,2013-01-31 11:06:00,
2013-01-31 06:11:00,50.5,49.7,29.12,SE,127,8.7,16.3,97,0.00,,---,0.00,VWS V14.01,2013-01-31 11:11:00,
2013-01-31 06:16:00,50.7,49.9,29.12,SSE,154,23.7,23.7,97,0.00,,---,0.00,VWS V14.01,2013-01-31 11:16:00,
2013-01-31 06:21:00,50.9,50.1,29.12,SSE,163,14.3,14.8,97,0.00,,---,0.00,VWS V14.01,2013-01-31 11:21:00,
2013-01-31 06:26:00,51.3,50.4,29.09,South,174,13.4,22.4,97,0.00,,---,0.00,VWS V14.01,2013-01-31 11:26:00,
2013-01-31 06:31:00,51.8,51.0,29.09,SE,133,20.6,20.6,97,0.00,,---,0.00,VWS V14.01,2013-01-31 11:31:00,
2013-01-31 06:36:00,51.8,51.0,29.09,South,170,16.8,16.8,97,0.00,,---,0.00,VWS V14.01,2013-01-31 11:36:00,
2013-01-31 06:41:00,51.8,51.0,29.09,South,184,14.8,15.2,97,0.00,,---,0.00,VWS V14.01,2013-01-31 11:41:00,
2013-01-31 06:46:00,52.0,51.2,29.09,SSE,168,15.2,23.3,97,0.00,,---,0.00,VWS V14.01,2013-01-31 11:46:00,
2013-01-31 06:51:00,52.0,51.2,29.09,SSE,151,19.0,23.7,97,0.00,,---,0.00,VWS V14.01,2013-01-31 11:51:00,
2013-01-31 06:56:00,52.0,51.2,29.06,SE,144,13.9,21.5,97,0.00,,---,0.00,VWS V14.01,2013-01-31 11:56:00,
2013-01-31 07:01:00,52.0,51.2,29.06,SE,124,19.5,22.4,97,0.00,,---,0.00,VWS V14.01,2013-01-31 12:01:00,
2013-01-31 07:06:00,52.0,51.2,29.06,SSE,162,15.4,19.0,97,0.00,,---,0.00,VWS V14.01,2013-01-31 12:06:00,
2013-01-31 07:11:00,52.0,51.2,29.03,SE,134,21.5,28.0,97,0.00,,---,0.00,VWS V14.01,2013-01-31 12:11:00,
2013-01-31 07:16:00,52.5,51.7,29.03,SE,141,21.0,21.5,97,0.00,,---,0.00,VWS V14.01,2013-01-31 12:16:00,
2013-01-31 07:21:00,52.7,51.9,29.03,South,172,19.5,20.6,97,0.00,,---,0.00,VWS V14.01,2013-01-31 12:21:00,
2013-01-31 07:26:00,52.7,51.9,29.03,SE,145,24.8,24.8,97,0.00,,---,0.00,VWS V14.01,2013-01-31 12:26:00,
2013-01-31 07:31:00,52.5,51.7,29.03,SE,133,17.7,17.7,97,0.00,,---,0.00,VWS V14.01,2013-01-31 12:31:00,
2013-01-31 07:36:00,52.7,51.9,29.03,SSE,161,15.9,15.9,97,0.00,,---,0.00,VWS V14.01,2013-01-31 12:36:00,
2013-01-31 07:41:00,52.5,51.7,29.00,SE,136,28.6,28.6,97,0.00,,---,0.00,VWS V14.01,2013-01-31 12:41:00,
2013-01-31 07:46:00,52.5,51.7,29.00,ESE,118,17.2,24.8,97,0.00,,---,0.00,VWS V14.01,2013-01-31 12:46:00,
2013-01-31 07:51:00,52.3,51.5,29.00,SSE,163,18.6,31.8,97,0.00,,---,0.00,VWS V14.01,2013-01-31 12:51:00,
2013-01-31 07:56:00,52.3,51.5,29.00,South,184,23.3,30.4,97,0.00,,---,0.00,VWS V14.01,2013-01-31 12:56:00,
2013-01-31 08:01:00,52.9,52.0,29.00,South,185,18.1,26.6,97,0.00,,---,0.00,VWS V14.01,2013-01-31 13:01:00,
2013-01-31 08:06:00,53.6,52.8,29.00,SSE,164,21.9,36.5,97,0.00,,---,0.00,VWS V14.01,2013-01-31 13:06:00,
2013-01-31 08:11:00,54.3,53.5,29.00,SSE,165,24.4,42.7,97,0.00,,---,0.00,VWS V14.01,2013-01-31 13:11:00,
2013-01-31 08:15:00,55.0,54.2,29.00,South,170,28.4,30.4,97,0.00,,---,0.00,VWS V14.01,2013-01-31 13:15:00,
2013-01-31 08:20:00,54.9,54.0,29.00,South,176,21.5,29.5,97,0.00,,---,0.00,VWS V14.01,2013-01-31 13:20:00,
2013-01-31 08:25:00,54.5,53.7,29.00,South,189,21.0,25.3,97,0.00,,---,0.00,VWS V14.01,2013-01-31 13:25:00,
2013-01-31 08:30:00,55.0,54.2,29.00,South,186,17.2,24.4,97,0.00,,---,0.00,VWS V14.01,2013-01-31 13:30:00,
2013-01-31 08:35:00,55.0,54.2,29.00,SSE,158,19.9,24.8,97,0.00,,---,0.00,VWS V14.01,2013-01-31 13:35:00,
2013-01-31 08:40:00,55.0,54.2,28.97,South,178,23.3,23.3,97,0.00,,---,0.00,VWS V14.01,2013-01-31 13:40:00,
2013-01-31 08:45:00,54.5,53.7,28.97,SSE,165,22.8,22.8,97,0.00,,---,0.00,VWS V14.01,2013-01-31 13:45:00,
2013-01-31 08:50:00,54.5,53.7,28.97,South,180,13.9,21.9,97,0.00,,---,0.00,VWS V14.01,2013-01-31 13:50:00,
2013-01-31 08:55:00,54.3,53.5,28.97,SSW,201,13.9,19.5,97,0.00,,---,0.00,VWS V14.01,2013-01-31 13:55:00,
2013-01-31 09:00:00,54.0,53.1,28.97,SSE,161,12.5,26.6,97,0.00,,---,0.00,VWS V14.01,2013-01-31 14:00:00,
2013-01-31 09:05:00,53.6,52.8,28.97,SSE,164,15.4,15.4,97,0.00,,---,0.00,VWS V14.01,2013-01-31 14:05:00,
2013-01-31 09:10:00,53.1,52.2,28.97,South,182,11.0,19.0,97,0.00,,---,0.00,VWS V14.01,2013-01-31 14:10:00,
2013-01-31 09:15:00,52.5,51.7,28.97,SE,146,11.6,19.9,97,0.00,,---,0.00,VWS V14.01,2013-01-31 14:15:00,
2013-01-31 09:20:00,52.7,51.9,28.97,South,187,14.3,25.7,97,0.00,,---,0.00,VWS V14.01,2013-01-31 14:20:00,
2013-01-31 09:25:00,53.1,52.2,29.00,South,178,13.4,15.9,97,0.00,,---,0.00,VWS V14.01,2013-01-31 14:25:00,
2013-01-31 09:30:00,52.5,51.7,29.00,SSE,150,19.5,20.1,97,0.00,,---,0.00,VWS V14.01,2013-01-31 14:30:00,
2013-01-31 09:35:00,52.5,51.7,29.00,SSW,203,13.4,24.8,97,0.00,,---,0.00,VWS V14.01,2013-01-31 14:35:00,
2013-01-31 09:40:00,52.7,51.9,29.00,SSW,194,14.3,20.6,97,0.00,,---,0.00,VWS V14.01,2013-01-31 14:40:00,
2013-01-31 09:45:00,52.5,51.7,29.00,SSW,208,19.9,23.7,97,0.00,,---,0.00,VWS V14.01,2013-01-31 14:45:00,
2013-01-31 09:50:00,52.3,51.5,29.00,SSW,195,12.1,25.3,97,0.00,,---,0.00,VWS V14.01,2013-01-31 14:50:00,
2013-01-31 09:55:00,52.0,51.2,29.00,South,183,18.1,19.0,97,0.00,,---,0.00,VWS V14.01,2013-01-31 14:55:00,
2013-01-31 10:00:00,52.0,51.2,29.00,SSW,210,19.9,21.0,97,0.00,,---,0.00,VWS V14.01,2013-01-31 15:00:00,
2013-01-31 10:05:00,52.2,51.3,29.00,SSW,194,19.0,26.6,97,0.00,,---,0.00,VWS V14.01,2013-01-31 15:05:00,
2013-01-31 10:10:00,52.5,51.7,29.00,SSW,202,19.5,23.7,97,0.00,,---,0.00,VWS V14.01,2013-01-31 15:10:00,
2013-01-31 10:15:00,52.5,51.7,29.00,SW,232,21.0,25.3,97,0.00,,---,0.00,VWS V14.01,2013-01-31 15:15:00,
2013-01-31 10:20:00,52.3,51.5,29.00,SSW,210,18.1,26.6,97,0.00,,---,0.00,VWS V14.01,2013-01-31 15:20:00,
2013-01-31 10:25:00,51.8,51.0,29.00,South,182,16.3,30.4,97,0.00,,---,0.00,VWS V14.01,2013-01-31 15:25:00,
2013-01-31 10:30:00,51.4,50.6,29.00,SSW,199,19.5,21.0,97,0.00,,---,0.00,VWS V14.01,2013-01-31 15:30:00,
2013-01-31 10:35:00,51.8,50.7,29.00,SW,217,17.7,21.9,96,0.00,,---,0.00,VWS V14.01,2013-01-31 15:35:00,
2013-01-31 10:40:00,51.8,48.1,29.03,SSW,207,11.6,14.3,87,0.00,,---,0.00,VWS V14.01,2013-01-31 15:40:00,
2013-01-31 10:45:00,51.8,46.5,29.03,SSW,205,22.8,22.8,82,0.00,,---,0.00,VWS V14.01,2013-01-31 15:45:00,
2013-01-31 10:50:00,51.4,43.4,29.03,SSW,209,18.1,21.5,74,0.00,,---,0.00,VWS V14.01,2013-01-31 15:50:00,
2013-01-31 10:55:00,51.1,41.7,29.03,SW,226,15.4,23.7,70,0.00,,---,0.00,VWS V14.01,2013-01-31 15:55:00,
2013-01-31 11:00:00,51.1,40.5,29.03,South,179,13.9,21.5,67,0.00,,---,0.00,VWS V14.01,2013-01-31 16:00:00,
2013-01-31 11:05:00,50.9,39.6,29.03,South,171,12.5,21.0,65,0.00,,---,0.00,VWS V14.01,2013-01-31 16:05:00,
2013-01-31 11:10:00,50.9,38.8,29.03,SSW,199,16.3,18.6,63,0.00,,---,0.00,VWS V14.01,2013-01-31 16:10:00,
2013-01-31 11:15:00,51.3,37.9,29.03,SSW,209,14.3,20.6,60,0.00,,---,0.00,VWS V14.01,2013-01-31 16:15:00,
2013-01-31 11:20:00,51.6,36.5,29.03,SW,217,15.2,15.4,56,0.00,,---,0.00,VWS V14.01,2013-01-31 16:20:00,
2013-01-31 11:25:00,51.4,35.8,29.03,SSW,209,20.1,21.9,55,0.00,,---,0.00,VWS V14.01,2013-01-31 16:25:00,
2013-01-31 11:30:00,50.5,37.2,29.03,SSW,195,21.5,26.2,60,0.00,,---,0.00,VWS V14.01,2013-01-31 16:30:00,
2013-01-31 11:35:00,50.4,37.8,29.03,WSW,244,15.9,26.2,62,0.00,,---,0.00,VWS V14.01,2013-01-31 16:35:00,
2013-01-31 11:40:00,50.2,37.7,29.06,SW,227,12.5,16.3,62,0.00,,---,0.00,VWS V14.01,2013-01-31 16:40:00,
2013-01-31 11:45:00,50.2,37.3,29.06,SSW,201,21.5,21.9,61,0.00,,---,0.00,VWS V14.01,2013-01-31 16:45:00,
2013-01-31 11:50:00,50.2,36.0,29.06,SSW,213,13.9,21.5,58,0.00,,---,0.00,VWS V14.01,2013-01-31 16:50:00,
2013-01-31 11:55:00,50.2,35.1,29.06,SSW,211,16.3,20.6,56,0.00,,---,0.00,VWS V14.01,2013-01-31 16:55:00,
2013-01-31 12:00:00,50.2,33.7,29.06,SSW,202,24.8,24.8,53,0.00,,---,0.00,VWS V14.01,2013-01-31 17:00:00,
2013-01-31 12:05:00,50.5,33.6,29.06,SW,219,20.1,23.3,52,0.00,,---,0.00,VWS V14.01,2013-01-31 17:05:00,
2013-01-31 12:10:00,51.1,34.1,29.06,SW,227,15.4,18.1,52,0.00,,---,0.00,VWS V14.01,2013-01-31 17:10:00,
2013-01-31 12:15:00,51.1,33.6,29.06,SW,219,10.5,19.5,51,0.00,,---,0.00,VWS V14.01,2013-01-31 17:15:00,
2013-01-31 12:20:00,50.5,33.6,29.06,SSW,211,15.4,25.3,52,0.00,,---,0.00,VWS V14.01,2013-01-31 17:20:00,
2013-01-31 12:25:00,50.4,33.9,29.06,SSW,192,11.2,16.3,53,0.00,,---,0.00,VWS V14.01,2013-01-31 17:25:00,
2013-01-31 12:30:00,50.0,34.0,29.06,SW,218,15.4,20.6,54,0.00,,---,0.00,VWS V14.01,2013-01-31 17:30:00,
2013-01-31 12:35:00,50.7,35.2,29.06,SW,223,13.9,17.2,55,0.00,,---,0.00,VWS V14.01,2013-01-31 17:35:00,
2013-01-31 12:40:00,50.7,34.7,29.06,SSW,203,9.6,11.0,54,0.00,,---,0.00,VWS V14.01,2013-01-31 17:40:00,
2013-01-31 12:45:00,50.9,34.9,29.06,SW,219,21.0,21.0,54,0.00,,---,0.00,VWS V14.01,2013-01-31 17:45:00,
2013-01-31 12:50:00,51.3,35.2,29.06,SSW,212,9.6,10.5,54,0.00,,---,0.00,VWS V14.01,2013-01-31 17:50:00,
2013-01-31 12:55:00,51.6,35.5,29.06,SSW,203,12.5,13.0,54,0.00,,---,0.00,VWS V14.01,2013-01-31 17:55:00,
2013-01-31 13:00:00,51.6,34.6,29.06,WSW,256,12.5,14.8,52,0.00,,---,0.00,VWS V14.01,2013-01-31 18:00:00,
2013-01-31 13:05:00,51.8,34.8,29.06,SW,224,19.0,20.1,52,0.00,,---,0.00,VWS V14.01,2013-01-31 18:05:00,
2013-01-31 13:10:00,50.9,33.4,29.09,SSW,212,11.0,17.2,51,0.00,,---,0.00,VWS V14.01,2013-01-31 18:10:00,
2013-01-31 13:15:00,50.4,33.4,29.09,SSW,204,17.7,19.0,52,0.00,,---,0.00,VWS V14.01,2013-01-31 18:15:00,
2013-01-31 13:20:00,50.2,33.2,29.09,SSW,194,11.0,17.7,52,0.00,,---,0.00,VWS V14.01,2013-01-31 18:20:00,
2013-01-31 13:25:00,50.2,33.2,29.09,SSW,208,10.1,10.1,52,0.00,,---,0.00,VWS V14.01,2013-01-31 18:25:00,
2013-01-31 13:30:00,50.0,32.6,29.09,SW,222,13.0,16.3,51,0.00,,---,0.00,VWS V14.01,2013-01-31 18:30:00,
2013-01-31 13:35:00,49.6,31.8,29.09,SSW,210,15.9,16.8,50,0.00,,---,0.00,VWS V14.01,2013-01-31 18:35:00,
2013-01-31 13:40:00,49.1,31.3,29.12,SW,226,19.0,19.0,50,0.00,,---,0.00,VWS V14.01,2013-01-31 18:40:00,
2013-01-31 13:45:00,49.3,31.0,29.12,SE,136,12.1,15.9,49,0.00,,---,0.00,VWS V14.01,2013-01-31 18:45:00,
2013-01-31 13:50:00,49.5,30.6,29.12,SW,232,13.4,15.4,48,0.00,,---,0.00,VWS V14.01,2013-01-31 18:50:00,
2013-01-31 13:55:00,49.3,30.4,29.12,SW,215,16.3,19.9,48,0.00,,---,0.00,VWS V14.01,2013-01-31 18:55:00,
2013-01-31 14:00:00,49.3,29.9,29.12,SSW,213,21.5,21.5,47,0.00,,---,0.00,VWS V14.01,2013-01-31 19:00:00,
2013-01-31 14:05:00,49.1,29.8,29.12,SSW,208,19.0,20.1,47,0.00,,---,0.00,VWS V14.01,2013-01-31 19:05:00,
2013-01-31 14:10:00,48.7,29.4,29.12,SW,226,14.3,21.0,47,0.00,,---,0.00,VWS V14.01,2013-01-31 19:10:00,
2013-01-31 14:15:00,48.6,29.3,29.12,SW,230,15.2,17.2,47,0.00,,---,0.00,VWS V14.01,2013-01-31 19:15:00,
2013-01-31 14:20:00,48.2,28.4,29.12,SW,226,15.4,15.4,46,0.00,,---,0.00,VWS V14.01,2013-01-31 19:20:00,
2013-01-31 14:25:00,48.4,29.1,29.12,South,187,15.4,15.9,47,0.00,,---,0.00,VWS V14.01,2013-01-31 19:25:00,
2013-01-31 14:30:00,48.2,28.4,29.12,SSW,212,23.7,23.7,46,0.00,,---,0.00,VWS V14.01,2013-01-31 19:30:00,
2013-01-31 14:35:00,48.4,28.6,29.12,SSW,206,13.4,13.4,46,0.00,,---,0.00,VWS V14.01,2013-01-31 19:35:00,
2013-01-31 14:40:00,48.0,28.2,29.12,SW,216,14.3,18.6,46,0.00,,---,0.00,VWS V14.01,2013-01-31 19:40:00,
2013-01-31 14:45:00,48.2,28.4,29.15,SW,225,19.0,19.0,46,0.00,,---,0.00,VWS V14.01,2013-01-31 19:45:00,
2013-01-31 14:50:00,47.7,27.9,29.15,WSW,239,19.9,19.9,46,0.00,,---,0.00,VWS V14.01,2013-01-31 19:50:00,
2013-01-31 14:55:00,47.5,27.8,29.15,SSW,200,18.6,18.6,46,0.00,,---,0.00,VWS V14.01,2013-01-31 19:55:00,
2013-01-31 15:00:00,47.5,27.8,29.15,SW,218,11.6,11.6,46,0.00,,---,0.00,VWS V14.01,2013-01-31 20:00:00,
2013-01-31 15:05:00,47.1,27.4,29.15,SSW,213,11.6,18.6,46,0.00,,---,0.00,VWS V14.01,2013-01-31 20:05:00,
2013-01-31 15:10:00,46.6,26.9,29.15,SW,235,12.5,12.5,46,0.00,,---,0.00,VWS V14.01,2013-01-31 20:10:00,
2013-01-31 15:15:00,47.1,27.4,29.18,SSW,201,17.2,20.1,46,0.00,,---,0.00,VWS V14.01,2013-01-31 20:15:00,
2013-01-31 15:20:00,47.1,26.9,29.18,SW,232,11.2,17.2,45,0.00,,---,0.00,VWS V14.01,2013-01-31 20:20:00,
2013-01-31 15:25:00,46.8,26.0,29.18,SSW,211,21.0,21.0,44,0.00,,---,0.00,VWS V14.01,2013-01-31 20:25:00,
2013-01-31 15:30:00,46.4,26.2,29.18,SW,223,15.9,17.2,45,0.00,,---,0.00,VWS V14.01,2013-01-31 20:30:00,
2013-01-31 15:35:00,45.9,25.7,29.18,SW,227,21.5,21.9,45,0.00,,---,0.00,VWS V14.01,2013-01-31 20:35:00,
2013-01-31 15:40:00,45.5,25.4,29.18,SW,219,15.2,21.5,45,0.00,,---,0.00,VWS V14.01,2013-01-31 20:40:00,
2013-01-31 15:45:00,45.3,25.8,29.21,SW,216,17.7,21.5,46,0.00,,---,0.00,VWS V14.01,2013-01-31 20:45:00,
2013-01-31 15:50:00,45.0,25.4,29.21,SW,222,18.6,18.6,46,0.00,,---,0.00,VWS V14.01,2013-01-31 20:50:00,
2013-01-31 15:54:00,44.6,25.6,29.21,SW,224,24.2,24.2,47,0.00,,---,0.00,VWS V14.01,2013-01-31 20:54:00,
2013-01-31 15:59:00,44.4,25.5,29.21,SW,223,25.3,27.5,47,0.00,,---,0.00,VWS V14.01,2013-01-31 20:59:00,
2013-01-31 16:04:00,44.4,25.5,29.21,SSW,201,19.5,21.9,47,0.00,,---,0.00,VWS V14.01,2013-01-31 21:04:00,
2013-01-31 16:09:00,44.2,24.8,29.21,SW,215,19.0,22.4,46,0.00,,---,0.00,VWS V14.01,2013-01-31 21:09:00,
2013-01-31 16:14:00,44.2,24.8,29.23,SSW,199,13.9,24.8,46,0.00,,---,0.00,VWS V14.01,2013-01-31 21:14:00,
2013-01-31 16:19:00,43.9,24.5,29.23,SSW,208,14.3,19.5,46,0.00,,---,0.00,VWS V14.01,2013-01-31 21:19:00,
2013-01-31 16:24:00,43.7,24.3,29.23,SSW,211,11.0,11.0,46,0.00,,---,0.00,VWS V14.01,2013-01-31 21:24:00,
2013-01-31 16:29:00,43.5,24.1,29.23,WSW,255,16.8,26.2,46,0.00,,---,0.00,VWS V14.01,2013-01-31 21:29:00,
2013-01-31 16:34:00,43.3,23.4,29.23,SSW,201,13.4,18.1,45,0.00,,---,0.00,VWS V14.01,2013-01-31 21:34:00,
2013-01-31 16:39:00,43.0,23.6,29.23,SSW,204,16.3,20.1,46,0.00,,---,0.00,VWS V14.01,2013-01-31 21:39:00,
2013-01-31 16:44:00,42.8,23.0,29.23,SSW,195,16.8,21.9,45,0.00,,---,0.00,VWS V14.01,2013-01-31 21:44:00,
2013-01-31 16:49:00,42.8,23.5,29.23,SSW,210,15.2,22.4,46,0.00,,---,0.00,VWS V14.01,2013-01-31 21:49:00,
2013-01-31 16:54:00,42.4,23.1,29.23,SW,229,8.3,13.0,46,0.00,,---,0.00,VWS V14.01,2013-01-31 21:54:00,
2013-01-31 16:59:00,42.1,22.8,29.26,WSW,245,14.8,17.7,46,0.00,,---,0.00,VWS V14.01,2013-01-31 21:59:00,
2013-01-31 17:04:00,42.1,23.3,29.26,SW,218,14.8,14.8,47,0.00,,---,0.00,VWS V14.01,2013-01-31 22:04:00,
2013-01-31 17:09:00,41.2,23.0,29.26,SW,219,11.6,20.1,48,0.00,,---,0.00,VWS V14.01,2013-01-31 22:09:00,
2013-01-31 17:14:00,41.4,23.2,29.26,SW,216,10.5,17.2,48,0.00,,---,0.00,VWS V14.01,2013-01-31 22:14:00,
2013-01-31 17:19:00,40.8,23.1,29.26,SSW,195,12.5,13.4,49,0.00,,---,0.00,VWS V14.01,2013-01-31 22:19:00,
2013-01-31 17:24:00,40.6,23.0,29.26,SSW,192,14.3,17.2,49,0.00,,---,0.00,VWS V14.01,2013-01-31 22:24:00,
2013-01-31 17:29:00,41.0,23.3,29.26,SSW,206,12.1,12.5,49,0.00,,---,0.00,VWS V14.01,2013-01-31 22:29:00,
2013-01-31 17:34:00,40.6,22.5,29.26,SW,225,15.2,19.5,48,0.00,,---,0.00,VWS V14.01,2013-01-31 22:34:00,
2013-01-31 17:39:00,40.8,22.7,29.26,SSW,206,10.5,17.7,48,0.00,,---,0.00,VWS V14.01,2013-01-31 22:39:00,
2013-01-31 17:44:00,41.2,22.5,29.29,SW,221,20.6,25.3,47,0.00,,---,0.00,VWS V14.01,2013-01-31 22:44:00,
2013-01-31 17:49:00,40.6,22.0,29.29,SSW,209,17.2,23.7,47,0.00,,---,0.00,VWS V14.01,2013-01-31 22:49:00,
2013-01-31 17:54:00,41.0,22.3,29.29,SSW,202,18.6,21.5,47,0.00,,---,0.00,VWS V14.01,2013-01-31 22:54:00,
2013-01-31 17:59:00,41.2,22.0,29.29,SW,232,15.9,23.7,46,0.00,,---,0.00,VWS V14.01,2013-01-31 22:59:00,
2013-01-31 18:04:00,41.0,22.3,29.29,SSW,201,13.9,17.7,47,0.00,,---,0.00,VWS V14.01,2013-01-31 23:04:00,
2013-01-31 18:09:00,41.0,22.3,29.29,SW,227,15.9,18.1,47,0.00,,---,0.00,VWS V14.01,2013-01-31 23:09:00,
2013-01-31 18:14:00,40.8,22.7,29.32,SW,214,14.8,15.4,48,0.00,,---,0.00,VWS V14.01,2013-01-31 23:14:00,
2013-01-31 18:19:00,40.8,22.7,29.32,WSW,247,17.2,19.9,48,0.00,,---,0.00,VWS V14.01,2013-01-31 23:19:00,
2013-01-31 18:24:00,40.5,22.3,29.32,SSW,205,15.9,17.2,48,0.00,,---,0.00,VWS V14.01,2013-01-31 23:24:00,
2013-01-31 18:29:00,40.6,23.0,29.32,SSW,213,13.4,17.2,49,0.00,,---,0.00,VWS V14.01,2013-01-31 23:29:00,
2013-01-31 18:34:00,40.6,22.5,29.32,SSW,207,13.9,21.9,48,0.00,,---,0.00,VWS V14.01,2013-01-31 23:34:00,
2013-01-31 18:39:00,40.5,22.3,29.32,SW,214,18.6,19.0,48,0.00,,---,0.00,VWS V14.01,2013-01-31 23:39:00,
2013-01-31 18:44:00,40.5,21.8,29.32,WSW,239,11.6,13.9,47,0.00,,---,0.00,VWS V14.01,2013-01-31 23:44:00,
2013-01-31 18:49:00,40.3,21.7,29.32,SSW,205,10.5,12.1,47,0.00,,---,0.00,VWS V14.01,2013-01-31 23:49:00,
2013-01-31 18:54:00,40.5,21.8,29.32,SW,234,10.1,13.0,47,0.00,,---,0.00,VWS V14.01,2013-01-31 23:54:00,
2013-01-31 18:59:00,40.6,22.0,29.35,WSW,243,10.1,11.6,47,0.00,,---,0.00,VWS V14.01,2013-01-31 23:59:00,
2013-01-31 19:04:00,40.5,21.8,29.35,SW,232,7.4,12.1,47,0.00,,---,0.00,VWS V14.01,2013-02-01 00:04:00,
2013-01-31 19:09:00,40.5,22.3,29.35,SSW,199,14.3,14.3,48,0.00,,---,0.00,VWS V14.01,2013-02-01 00:09:00,
2013-01-31 19:14:00,39.9,21.8,29.35,SSW,200,11.6,13.9,48,0.00,,---,0.00,VWS V14.01,2013-02-01 00:14:00,
2013-01-31 19:19:00,40.1,22.0,29.35,SW,221,25.3,25.3,48,0.00,,---,0.00,VWS V14.01,2013-02-01 00:19:00,
2013-01-31 19:24:00,40.3,21.7,29.35,SW,220,12.5,17.2,47,0.00,,---,0.00,VWS V14.01,2013-02-01 00:24:00,
2013-01-31 19:29:00,40.3,22.2,29.35,SSW,208,13.0,15.9,48,0.00,,---,0.00,VWS V14.01,2013-02-01 00:29:00,
2013-01-31 19:34:00,40.1,22.0,29.35,SW,231,11.2,15.4,48,0.00,,---,0.00,VWS V14.01,2013-02-01 00:34:00,
2013-01-31 19:39:00,39.9,21.8,29.35,SW,217,12.5,15.9,48,0.00,,---,0.00,VWS V14.01,2013-02-01 00:39:00,
2013-01-31 19:44:00,39.9,21.3,29.35,SW,218,12.1,14.3,47,0.00,,---,0.00,VWS V14.01,2013-02-01 00:44:00,
2013-01-31 19:49:00,39.9,21.3,29.35,SW,232,11.0,15.9,47,0.00,,---,0.00,VWS V14.01,2013-02-01 00:49:00,
2013-01-31 19:54:00,39.7,21.2,29.35,SSW,195,12.1,14.3,47,0.00,,---,0.00,VWS V14.01,2013-02-01 00:54:00,
2013-01-31 19:59:00,39.7,21.2,29.38,SW,236,13.4,15.2,47,0.00,,---,0.00,VWS V14.01,2013-02-01 00:59:00,
2013-01-31 20:04:00,39.6,21.0,29.38,SW,228,14.8,16.3,47,0.00,,---,0.00,VWS V14.01,2013-02-01 01:04:00,
2013-01-31 20:09:00,39.4,20.8,29.38,SW,227,15.2,15.2,47,0.00,,---,0.00,VWS V14.01,2013-02-01 01:09:00,
2013-01-31 20:14:00,39.4,20.8,29.38,SW,219,8.7,15.4,47,0.00,,---,0.00,VWS V14.01,2013-02-01 01:14:00,
2013-01-31 20:19:00,39.4,20.8,29.38,WSW,249,10.5,11.6,47,0.00,,---,0.00,VWS V14.01,2013-02-01 01:19:00,
2013-01-31 20:24:00,39.0,20.0,29.38,SW,219,10.5,10.5,46,0.00,,---,0.00,VWS V14.01,2013-02-01 01:24:00,
2013-01-31 20:29:00,39.4,19.3,29.38,SW,222,19.5,19.5,44,0.00,,---,0.00,VWS V14.01,2013-02-01 01:29:00,
2013-01-31 20:34:00,39.4,18.2,29.38,SW,219,11.2,13.0,42,0.00,,---,0.00,VWS V14.01,2013-02-01 01:34:00,
2013-01-31 20:39:00,39.2,18.0,29.38,SW,230,6.3,6.7,42,0.00,,---,0.00,VWS V14.01,2013-02-01 01:39:00,
2013-01-31 20:44:00,39.2,18.0,29.41,WSW,258,11.6,14.8,42,0.00,,---,0.00,VWS V14.01,2013-02-01 01:44:00,
2013-01-31 20:49:00,38.7,17.6,29.41,SSW,202,7.8,8.3,42,0.00,,---,0.00,VWS V14.01,2013-02-01 01:49:00,
2013-01-31 20:54:00,38.7,17.0,29.41,WSW,239,9.6,9.6,41,0.00,,---,0.00,VWS V14.01,2013-02-01 01:54:00,
2013-01-31 20:59:00,38.7,17.0,29.41,SW,230,10.5,11.6,41,0.00,,---,0.00,VWS V14.01,2013-02-01 01:59:00,
2013-01-31 21:04:00,38.5,16.8,29.41,SW,230,12.5,15.4,41,0.00,,---,0.00,VWS V14.01,2013-02-01 02:04:00,
2013-01-31 21:09:00,38.3,16.7,29.41,SW,225,14.3,15.2,41,0.00,,---,0.00,VWS V14.01,2013-02-01 02:09:00,
2013-01-31 21:14:00,38.3,16.7,29.41,SSW,207,26.2,26.2,41,0.00,,---,0.00,VWS V14.01,2013-02-01 02:14:00,
2013-01-31 21:19:00,37.9,15.8,29.41,SW,219,15.9,19.0,40,0.00,,---,0.00,VWS V14.01,2013-02-01 02:19:00,
2013-01-31 21:24:00,37.6,15.5,29.41,WSW,249,15.9,22.4,40,0.00,,---,0.00,VWS V14.01,2013-02-01 02:24:00,
2013-01-31 21:29:00,37.4,15.3,29.41,WSW,240,25.3,25.3,40,0.00,,---,0.00,VWS V14.01,2013-02-01 02:29:00,
2013-01-31 21:34:00,37.0,15.0,29.41,SW,236,17.2,19.5,40,0.00,,---,0.00,VWS V14.01,2013-02-01 02:34:00,
2013-01-31 21:39:00,36.9,14.8,29.41,SW,231,16.3,18.1,40,0.00,,---,0.00,VWS V14.01,2013-02-01 02:39:00,
2013-01-31 21:44:00,36.9,14.8,29.44,West,262,16.3,17.7,40,0.00,,---,0.00,VWS V14.01,2013-02-01 02:44:00,
2013-01-31 21:49:00,36.9,14.8,29.44,WSW,246,12.5,14.8,40,0.00,,---,0.00,VWS V14.01,2013-02-01 02:49:00,
2013-01-31 21:54:00,36.7,14.6,29.44,WSW,246,15.4,15.4,40,0.00,,---,0.00,VWS V14.01,2013-02-01 02:54:00,
2013-01-31 21:59:00,36.3,14.3,29.44,WSW,241,17.7,20.6,40,0.00,,---,0.00,VWS V14.01,2013-02-01 02:59:00,
2013-01-31 22:04:00,36.0,14.0,29.44,SW,232,14.3,17.2,40,0.00,,---,0.00,VWS V14.01,2013-02-01 03:04:00,
2013-01-31 22:09:00,35.8,13.8,29.44,SW,230,14.8,17.7,40,0.00,,---,0.00,VWS V14.01,2013-02-01 03:09:00,
2013-01-31 22:14:00,35.6,13.7,29.44,SW,230,14.3,19.0,40,0.00,,---,0.00,VWS V14.01,2013-02-01 03:14:00,
2013-01-31 22:19:00,35.4,13.5,29.44,SW,223,17.2,22.4,40,0.00,,---,0.00,VWS V14.01,2013-02-01 03:19:00,
2013-01-31 22:24:00,35.1,13.2,29.44,SW,221,16.3,22.4,40,0.00,,---,0.00,VWS V14.01,2013-02-01 03:24:00,
2013-01-31 22:29:00,35.2,13.4,29.44,SW,234,12.5,22.8,40,0.00,,---,0.00,VWS V14.01,2013-02-01 03:29:00,
2013-01-31 22:34:00,35.2,13.4,29.44,WSW,243,19.0,30.9,40,0.00,,---,0.00,VWS V14.01,2013-02-01 03:34:00,
2013-01-31 22:39:00,35.1,13.8,29.44,WSW,257,12.5,20.1,41,0.00,,---,0.00,VWS V14.01,2013-02-01 03:39:00,
2013-01-31 22:43:00,34.9,13.0,29.47,West,264,20.6,30.0,40,0.00,,---,0.00,VWS V14.01,2013-02-01 03:43:00,
2013-01-31 22:48:00,34.9,13.0,29.47,WSW,256,18.1,24.8,40,0.00,,---,0.00,VWS V14.01,2013-02-01 03:48:00,
2013-01-31 22:53:00,34.7,12.9,29.47,SW,232,14.8,23.7,40,0.00,,---,0.00,VWS V14.01,2013-02-01 03:53:00,
2013-01-31 22:58:00,34.7,12.9,29.47,SW,229,21.5,21.5,40,0.00,,---,0.00,VWS V14.01,2013-02-01 03:58:00,
2013-01-31 23:03:00,34.3,12.5,29.47,SW,216,15.2,20.1,40,0.00,,---,0.00,VWS V14.01,2013-02-01 04:03:00,
2013-01-31 23:08:00,34.3,12.5,29.47,SW,234,19.9,21.9,40,0.00,,---,0.00,VWS V14.01,2013-02-01 04:08:00,
2013-01-31 23:13:00,34.3,12.5,29.47,WSW,245,23.7,24.2,40,0.00,,---,0.00,VWS V14.01,2013-02-01 04:13:00,
2013-01-31 23:18:00,34.0,12.2,29.47,WSW,245,16.8,21.0,40,0.00,,---,0.00,VWS V14.01,2013-02-01 04:18:00,
2013-01-31 23:23:00,34.0,12.2,29.47,WSW,242,22.8,26.2,40,0.00,,---,0.00,VWS V14.01,2013-02-01 04:23:00,
2013-01-31 23:28:00,34.0,12.2,29.47,SW,219,15.9,19.0,40,0.00,,---,0.00,VWS V14.01,2013-02-01 04:28:00,
2013-01-31 23:33:00,33.8,12.1,29.47,SW,222,13.0,17.2,40,0.00,,---,0.00,VWS V14.01,2013-02-01 04:33:00,
2013-01-31 23:38:00,33.8,12.1,29.47,SW,220,18.1,21.9,40,0.00,,---,0.00,VWS V14.01,2013-02-01 04:38:00,
2013-01-31 23:43:00,33.6,11.9,29.47,SW,215,13.9,19.5,40,0.00,,---,0.00,VWS V14.01,2013-02-01 04:43:00,
2013-01-31 23:48:00,33.6,11.9,29.47,SW,236,20.1,25.7,40,0.00,,---,0.00,VWS V14.01,2013-02-01 04:48:00,
2013-01-31 23:53:00,33.6,11.9,29.47,SW,234,14.8,19.0,40,0.00,,---,0.00,VWS V14.01,2013-02-01 04:53:00,
2013-01-31 23:58:00,33.4,11.7,29.47,WSW,241,20.6,26.6,40,0.00,,---,0.00,VWS V14.01,2013-02-01 04:58:00,